DELTA 1 DEB, 12531

Orbit data source: Space-Track

DELTA 1 DEB, 12531 is space debris in SSO originally from a launch on Thu, 29 Jul 1976 UTC launched from the Air Force Western Test Range (AFWTR). Debris objects in space refer to the collection of defunct objects orbiting the Earth. Examples of debris include non-operational satellites, rocket bodies, and fragments generated from explosions, collisions, or faulty payload assembly.

Loading next visibility...
Identifier
12531, 1976-077DL
Orbit
SSO
Country
Flag of USUS
Related business
Manufacturer
Unknown
Mission
Spacecraft
Bus & Motor
Unknown
Mass
Unknown
Launch date (UTC)
1976-07-29 (49 years ago)
Launch vehicle
Unknown
Launch site
Air Force Western Test Range (AFWTR)
Object type
Payload
Rocket body
Debris
Shape & HBR
Unknown shape, 0.1 m
Radar Cross Section
Small (<0.1 m²)

Expand to show TLE details & history
Last TLE update: 1 day ago

TLE from 1 day ago
0 DELTA 1 DEB
1 12531U 76077DL  25348.01009545  .00000102  00000-0  13537-2 0  9999
2 12531 101.7623 143.1639 0135110  83.9556  39.2798 12.18501041 24689
Epoch: 2025-12-14T00:14Z
TLE epoch observation values (Epoch: 2025-12-14T00:14:32.246Z)
Latitude
54.13538°
Longitude
-106.74409°
Altitude
1,524.913 km
Speed
7.145 km/s
True Right ascension
22h 39m 16s
True Declination
53° 59' 16"
Sunlit
Object was in daylight at epoch
Visualization orbit readout
Latitude
Unknown
Longitude
Unknown
Altitude
Unknown
Speed
Unknown
Apparent Right ascension
Unknown
Apparent Declination
Unknown
Sunlit
N/A
Visualization observer readout
Local Sidereal Time
02:14:07
Azimuth
Unknown
Elevation
Unknown
Doppler factor
Unknown
Orbital elements
Apogee altitude
1,704.413 km
Perigee altitude
1,488.918 km
Semi-major axis
7,974.802 km
Eccentricity
0.01351
Inclination
101.7623°
RAAN
143.1639°
Arg. of periapsis
83.9556°
True anomaly
40.27293°
Mean anomaly
39.2798°
Eccentric anomaly
39.77506°
Mean motion
3.04764 °/min
Orbital period
118.12 mins
BSTAR
0.0013537
Loading maneuver chart data...
Computing Atmospheric mass density...
Loading historical data...
Loading historical data...
Loading historical data...
Loading historical data...
Loading historical data...
Loading historical data...
Loading historical data...

Documentation

Showing up to 5 results
|